Regional Weather Roundup
Issued by NWS

Home | Current Version | Previous Version | Text Only | Print | Product List | Glossary Off
Versions: 1 2 3 4 5 6 7 8 9 10 11 12 13 14 15 16 17 18 19 20 21 22 23 24 25 26 27 28 29 30 31 32 33 34 35 36 37 38 39 40 41 42 43 44 45 46 47 48 49 50

000
ASUS45 KTFX 252019
RWRMT
MONTANA HOURLY WEATHER ROUNDUP
NATIONAL WEATHER SERVICE GREAT FALLS MT
119 PM MST SUN JAN 25 2015

NOTE: "FAIR" INDICATES FEW OR NO CLOUDS BELOW 12000 FEET WITH NO
SIGNIFICANT WEATHER AND/OR OBSTRUCTIONS TO VISIBILITY.

* THESE STATIONS ARE NOT UNDER NWS QUALITY CONTROL. THEY DO NOT
   REPORT WEATHER SUCH AS PRECIPITATION OR FOG.

MTZ001>007-043-252100-
WEST OF THE DIVIDE
CITY           SKY/WX    TMP DP  RH WIND       PRES   REMARKS
KALISPELL      CLOUDY    45  37  74 CALM      30.14F
MISSOULA       FOG       34  34 100 CALM      30.22F
BUTTE          SUNNY     50  30  46 NW5       30.24F
MULLAN PASS    PTSUNNY   41  34  76 VRB5      30.25S
* ANACONDA     SUNNY     55  30  39 S15G22     N/A
* ESSEX        N/A       49  37  63 NE4        N/A
* EUREKA APT   CLOUDY    43  37  79 CALM      30.12S
* HAMILTON APT CLOUDY    61  27  27 SW7       30.21S
* LIBBY APT    CLOUDY    39  39 100 CALM      30.16F
* LINCOLN      N/A       54  33  45 S6G13      N/A
* LOOKOUT PASS N/A       46  37  71 N4         N/A
* POLSON       N/A       47  37  68 S2         N/A
* RONAN APT    CLOUDY    50  50 100 N/A        N/A
* SEELEY LAKE  N/A       56  35  45 SW4G13     N/A
* THOMP F APT  PTSUNNY   30  26  85 S3         N/A
* YAAK HILL    N/A       42  40  93 N/A        N/A
$$

MTZ008-052>055-252100-
SOUTHWEST MONTANA
CITY           SKY/WX    TMP DP  RH WIND       PRES   REMARKS
BOZEMAN        CLOUDY    37  34  89 S3        30.21S
DILLON         PTCLDY    57  27  32 SW24G31   30.25F
* W YELLOWSTON CLOUDY    35  29  79 SW4G14     N/A
* THREE FORKS  PTSUNNY   41  41 100 N/A        N/A
* BOULDER HILL N/A       47  27  46 SW11       N/A
* MONIDA PASS  N/A       28  28 100 SE14       N/A   WCI  17
* RAYNOLDS PAS N/A       29  10  45 SE26       N/A   WCI  14
* WHITEHALL    N/A       58  30  35 SW19G29    N/A
* WISE RIVER   N/A       54  28  37 NW8G18     N/A
$$

MTZ009>010-012-014-046-048-049-054-252100-
EAST SLOPES AND CENTRAL MONTANA
CITY           SKY/WX    TMP DP  RH WIND       PRES   REMARKS
CUT BANK       PTSUNNY   57  36  46 W22       29.96S
GREAT FALLS    CLOUDY    55  34  45 SW28G35   30.00F
HELENA         PTCLDY    57  36  46 CALM      30.16S
MALMSTROM AFB  CLOUDY    55  34  45 SW17G28   30.03R
* CONRAD       PTSUNNY   55  37  51 SW24G43    N/A
* DEARBORN     N/A       58  31  36 S18G27     N/A
* EAST GLACIER N/A       52  30  43 W18G32     N/A
* MONARCH      N/A       49  25  39 SW24G33    N/A
* PENDROY      N/A       54  33  45 NW20G29    N/A
* ROGERS PASS  N/A       47  30  52 SE16G26    N/A
* SWEET GRASS  N/A       53  32  45 W31G39     N/A
* WHITE SULPH  N/A       48  30  50 NW9G15     N/A
$$

MTZ011-013-016-021-035-040-045-047-050-051-252100-
NORTH CENTRAL MONTANA
CITY           SKY/WX    TMP DP  RH WIND       PRES   REMARKS
HAVRE          PTCLDY    52  39  61 SW23      29.87F
LEWISTOWN      PTSUNNY   46  30  54 VRB3      29.98S
* N BAR RANCH  SUNNY     55  28  35 NW22G41   29.92F
* CHINOOK      PTCLDY    57  37  47 W14G21    29.86F
* MALTA APT    PTCLDY    50  37  61 SW7        N/A
* CHESTER      N/A       52  36  55 W9G14      N/A
* DENTON       N/A       53  31  43 W19G26     N/A
* GEYSER       N/A       59  30  33 W39G52     N/A
* JUDITH GAP   N/A       52  33  48 W21G31     N/A
* LOMA         N/A       58  38  47 SW15G22    N/A
$$

MTZ017>020-022>027-061-062-252100-
NORTHEAST MONTANA
CITY           SKY/WX    TMP DP  RH WIND       PRES   REMARKS
GLASGOW        PTCLDY    43  30  60 SW5       29.84F
GLENDIVE       PTSUNNY   45  30  56 S14       29.89F
JORDAN         PTCLDY    52  37  57 W12       29.88F
SIDNEY         PTSUNNY   43  30  60 S9        29.90F
WOLF POINT     SUNNY     43  32  65 CALM      29.86F
* BEAVER HILL  N/A       40  29  65 S11        N/A   WCI  33
* CIRCLE       N/A       47  39  74 SW6G11     N/A
* LINDSAY DVD  N/A       48  35  61 SW17G24    N/A
* NAVAJO       N/A       38  29  70 SW15G22    N/A   WCI  29
* PLENTYWOOD A PTSUNNY   37  30  76 S9        29.84F WCI  30
* POPLAR APT   PTCLDY    43  30  60 N/A       29.85F
* SACO         N/A       49  35  59 W5         N/A
* SCOBEY APT   PTSUNNY   37  28  70 N/A        N/A
$$

MTZ028>042-056>058-252100-
SOUTHCENTRAL AND SOUTHEAST MONTANA
CITY           SKY/WX    TMP DP  RH WIND       PRES   REMARKS
BAKER          CLOUDY    45  30  56 SW9       29.91F
BILLINGS       PTCLDY    55  32  42 SW10      30.00F
LIVINGSTON     CLOUDY    55  28  35 SW30G40   30.11S
MILES CITY     CLOUDY    43  34  71 S5        29.91F
* BIG TIMBER A CLOUDY    55  28  35 W38G46    30.02F
* FORSYTH APT  PTCLDY    54  37  53 W8        29.92F
* LAUREL APT   PTCLDY    52  30  43 S6         N/A
* ROUNDUP APT  PTCLDY    61  32  34 SW21G26    N/A
* ALZADA       N/A       47  33  58 SW9        N/A
* HYSHAM       N/A       51  33  50 W9         N/A
* LAME DEER    N/A       49  32  52 W15G23     N/A
* REED POINT   N/A       61  32  34 W25G39     N/A
* ROSCOE HILL  N/A       61  19  20 W10G23     N/A
$$

REGIONAL REPORTS...DAKOTAS
CITY           SKY/WX    TMP DP  RH WIND       PRES   REMARKS
WILLISTON      PTCLDY    41  30  65 S9        29.88F
DICKINSON      CLOUDY    41  28  60 SW5       29.90F
BEACH          SUNNY     39  30  70 S9        29.91F WCI  33
CROSBY         PTSUNNY   36  36 100 S14       29.85F WCI  27
TIOGA          CLOUDY    34  34 100 SW9       29.90F WCI  27
WATFORD CITY   SUNNY     39  32  76 S8        29.88F WCI  33
BISMARCK       CLOUDY    36  30  79 W7        29.98F WCI  30
GRAND FORKS    PTSUNNY   25  12  58 SE5       30.02F WCI  19
FARGO          CLOUDY    27  16  63 CALM      30.03F
BUFFALO SD     PTSUNNY   45  27  49 SW10      29.88F
RAPID CITY     CLOUDY    46  18  33 S10       29.99F
$$

REGIONAL REPORTS...WYOMING/IDAHO/WASHINGTON
CITY           SKY/WX    TMP DP  RH WIND       PRES   REMARKS
GILLETTE       PTSUNNY   50  36  59 SW13      30.03F
SHERIDAN       PTCLDY    46  36  68 S6        30.01F
CODY           PTCLDY    59  27  29 W20G26    30.08F
YELLOWSTONE LA PTCLDY    34  27  76 VRB3      30.38F
SALMON         PTCLDY    36  27  70 CALM      30.37F
MULLAN PASS    PTSUNNY   41  34  76 VRB5      30.25S
SAND POINT     CLOUDY    43  43 100 CALM      30.22F
SPOKANE        PTSUNNY   52  45  77 S10       30.22F
$$

REGIONAL REPORTS...ALBERTA
CITY           SKY/WX    TMP DP  RH WIND       PRES   REMARKS
CALGARY        PTCLDY    57  34  42 S8        29.79F
LETHBRIDGE     PTSUNNY   59  34  39 W25G33    29.87F
MEDICINE HAT   PTSUNNY   57  41  55 W16G23    29.79F
EDMONTON       PTSUNNY   41  32  70 E6        29.73R
WATERTON GATE  N/A       59  27  29 SW23G41    N/A
CARDSTON       N/A       59  34  39 W13G21     N/A
MILK RIVER     N/A       54  36  51 W35G40     N/A
$$

REGIONAL REPORTS...SASKATCHEWAN
CITY           SKY/WX    TMP DP  RH WIND       PRES   REMARKS
SWIFT CURRENT  SUNNY     46  37  71 SW13G20   29.73R
MOOSE JAW      PTSUNNY   43  32  65 W21G30    29.73F
REGINA         CLOUDY    34  32  92 SE14      29.77F WCI  24
VAL MARIE      N/A       45  36  71 SW10       N/A
ASSINIBOIA     N/A       41  32  70 SW14       N/A
CORONACH       N/A       43  32  65 S6         N/A

$$



USA.gov is the U.S. government's official web portal to all federal, state and local government web resources and services.